Change the Weather History Date:

Thursday, January 3, 2013

  Actual Average Record
Temperature  
Mean Temperature 81 °F -  
Max Temperature 91 °F - - ()
Min Temperature 71 °F - - ()
Cooling Degree Days 16    
Growing Degree Days 31 (Base 50)    
Moisture  
Dew Point 66 °F    
Average Humidity 63    
Maximum Humidity 88    
Minimum Humidity 36    
Precipitation  
Precipitation 0.00 in - - ()
Sea Level Pressure  
Sea Level Pressure 29.88 in    
Wind  
Wind Speed 4 mph ()    
Max Wind Speed 9 mph    
Max Gust Speed -    
Visibility 4.8 miles    
Events      
T = Trace of Precipitation, MM = Missing Value Source: Averaged Metar Reports

Daily Weather History Graph

Daily Weather History Graph

Search for Another Location

Airport or City:

Trip Planner

Search our weather history database for the weather conditions in past years. The results will help you decide how hot, cold, wet, or windy it might be!

Date:

Astronomy

Jan. 03, 2013 Rise Set
Actual Time 6:28 AM ICT 5:49 PM ICT
Civil Twilight 6:05 AM ICT 6:13 PM ICT
Nautical Twilight 5:38 AM ICT 6:39 PM ICT
Astronomical Twilight 5:12 AM ICT 7:05 PM ICT
Moon 10:47 PM ICT (1/3) 10:21 AM ICT (1/3)
Length of Visible Light 12h 07m
Length of Day
11h 21m
Waning Gibbous, 70% of the Moon is Illuminated
Jan 3
Waning Gibbous
Jan 5
Last Quarter
Jan 12
New
Jan 19
First Quarter
Jan 27
Full

Hourly Weather History & Observations

Time (ICT) Temp. Heat Index Dew Point Humidity Pressure Visibility Wind Dir Wind Speed Gust Speed Precip Events Conditions
12:00 AM 73.4 °F - 68.0 °F 83% 29.89 in 5.0 mi NNE 2.3 mph - N/A   Partly Cloudy
12:30 AM 71.6 °F - 68.0 °F 88% 29.89 in 5.0 mi NNE 2.3 mph - N/A   Partly Cloudy
1:00 AM 73.4 °F - 68.0 °F 83% 29.89 in 5.0 mi ENE 2.3 mph - N/A   Partly Cloudy
7:00 AM - - - %  in - Calm Calm - -  
7:00 AM 71.6 °F - 66.2 °F 83% 29.92 in 5.0 mi East 4.6 mph - N/A   Unknown
7:30 AM 71.6 °F - 66.2 °F 83% 29.92 in 5.0 mi East 5.8 mph - N/A   Unknown
8:00 AM 73.4 °F - 66.2 °F 78% 29.95 in 5.0 mi East 2.3 mph - N/A   Unknown
8:30 AM 77.0 °F - 66.2 °F 69% 29.95 in 5.0 mi East 2.3 mph - N/A   Unknown
9:00 AM 78.8 °F - 64.4 °F 61% 29.95 in 5.6 mi ESE 8.1 mph - N/A   Unknown
9:30 AM 82.4 °F 83.9 °F 64.4 °F 54% 29.95 in 5.6 mi ESE 8.1 mph - N/A   Unknown
10:00 AM 84.2 °F 85.6 °F 64.4 °F 51% 29.95 in - East 8.1 mph - N/A   Clear
10:30 AM 84.2 °F 85.0 °F 62.6 °F 48% 29.95 in - East 9.2 mph - N/A   Clear
11:00 AM 86.0 °F 86.6 °F 62.6 °F 45% 29.95 in 6.2 mi East 6.9 mph - N/A   Partly Cloudy
11:30 AM 86.0 °F 86.1 °F 60.8 °F 43% 29.92 in - East 6.9 mph - N/A   Clear
12:00 PM 87.8 °F 87.6 °F 60.8 °F 40% 29.92 in - ESE 3.5 mph - N/A   Clear
12:30 PM 87.8 °F 87.6 °F 60.8 °F 40% 29.89 in - SE 8.1 mph - N/A   Clear
1:00 PM 89.6 °F 89.5 °F 60.8 °F 38% 29.86 in - North - - N/A   Clear
1:30 PM 89.6 °F 89.5 °F 60.8 °F 38% 29.86 in - North - - N/A   Clear
2:00 PM 89.6 °F 88.9 °F 59.0 °F 36% 29.83 in - North - - N/A   Clear
2:30 PM 89.6 °F 89.5 °F 60.8 °F 38% 29.83 in - ENE 9.2 mph - N/A   Clear
3:30 PM 91.4 °F 94.0 °F 66.2 °F 43% 29.80 in - SW 9.2 mph - N/A   Clear
4:00 PM 87.8 °F 91.4 °F 68.0 °F 52% 29.80 in - SSW 9.2 mph - N/A   Clear
4:30 PM 87.8 °F 91.4 °F 68.0 °F 52% 29.80 in - South 5.8 mph - N/A   Clear
5:00 PM 86.0 °F 89.4 °F 68.0 °F 55% 29.80 in - SSW 5.8 mph - N/A   Clear
5:30 PM 82.4 °F 86.3 °F 69.8 °F 66% 29.83 in - South 3.5 mph - N/A   Clear
6:00 PM 80.6 °F 83.9 °F 69.8 °F 70% 29.83 in - SW 3.5 mph - N/A   Clear
6:30 PM 80.6 °F 83.9 °F 69.8 °F 70% 29.83 in - WSW 3.5 mph - N/A   Clear
7:00 PM 80.6 °F 83.9 °F 69.8 °F 70% 29.86 in 4.3 mi West 4.6 mph - N/A   Unknown
7:30 PM 78.8 °F - 69.8 °F 74% 29.86 in 4.3 mi Calm Calm - N/A   Unknown
8:30 PM 78.8 °F - 69.8 °F 74% 29.89 in 4.3 mi Calm Calm - N/A   Unknown
9:00 PM 77.0 °F - 71.6 °F 83% 29.89 in 4.3 mi Calm Calm - N/A   Unknown
9:30 PM 78.8 °F - 69.8 °F 74% 29.89 in 4.3 mi Calm Calm - N/A   Unknown
10:00 PM 77.0 °F - 71.6 °F 83% 29.89 in 4.3 mi Calm Calm - N/A   Unknown
10:30 PM 77.0 °F - 69.8 °F 78% 29.89 in 4.3 mi Calm Calm - N/A   Unknown
11:00 PM 77.0 °F - 69.8 °F 78% 29.89 in 4.3 mi NNW 3.5 mph - N/A   Unknown
11:30 PM 77.0 °F - 69.8 °F 78% 29.89 in 4.3 mi Calm Calm - N/A   Unknown